AXM5245 WBGB-WMKK

Flight info

Callsign AXM5245
Flight time 1h 49m
Altitude 36000
Route ADGAB2C ADGAB W447 KAMIN/N0469F280 G334 SAROX SAROX1J
Aircraft A320/M-SDE3FGHIRWY/LB1

Departure

Time 2026-04-11 08:29
Airport Bintulu Airport (WBGB)

Arrival

Time 2026-04-11 10:19
Airport Kuala Lumpur International Airport (WMKK)
Time Latitude Longitude Altitude Speed Heading
2026-04-11 07:48 3.12402 113.01995 89 ft 0 kts 81°
2026-04-11 08:18 3.12401 113.01988 88 ft 2 kts 81°
2026-04-11 08:18 3.12399 113.01969 88 ft 3 kts 85°
2026-04-11 08:19 3.12397 113.01948 88 ft 3 kts 91°
2026-04-11 08:19 3.12399 113.01928 88 ft 3 kts 104°
2026-04-11 08:19 3.12406 113.01912 88 ft 3 kts 143°
2026-04-11 08:19 3.12416 113.01907 88 ft 1 kts 169°
2026-04-11 08:20 3.12418 113.01906 88 ft 0 kts 169°
2026-04-11 08:23 3.12387 113.01912 88 ft 11 kts 169°
2026-04-11 08:23 3.12297 113.01930 88 ft 13 kts 168°
2026-04-11 08:24 3.12207 113.01948 88 ft 14 kts 169°
2026-04-11 08:24 3.12159 113.01913 88 ft 9 kts 254°
2026-04-11 08:24 3.12108 113.01898 88 ft 8 kts 168°
2026-04-11 08:24 3.12052 113.01910 88 ft 8 kts 168°
2026-04-11 08:25 3.12015 113.01888 88 ft 6 kts 250°
2026-04-11 08:25 3.12007 113.01847 88 ft 6 kts 259°
2026-04-11 08:25 3.11998 113.01805 88 ft 6 kts 251°
2026-04-11 08:25 3.11953 113.01788 88 ft 12 kts 174°
2026-04-11 08:26 3.11870 113.01800 88 ft 14 kts 168°
2026-04-11 08:26 3.11765 113.01823 88 ft 16 kts 167°
2026-04-11 08:26 3.11655 113.01847 88 ft 17 kts 168°
2026-04-11 08:26 3.11523 113.01874 88 ft 24 kts 168°
2026-04-11 08:27 3.11360 113.01907 88 ft 24 kts 169°
2026-04-11 08:27 3.11209 113.01939 88 ft 13 kts 137°
2026-04-11 08:27 3.11227 113.01943 88 ft 5 kts 316°
2026-04-11 08:27 3.11255 113.01934 88 ft 4 kts 348°
2026-04-11 08:28 3.11272 113.01931 88 ft 1 kts 347°
2026-04-11 08:28 3.11280 113.01929 88 ft 2 kts 347°
2026-04-11 08:28 3.11479 113.01882 89 ft 69 kts 347°
2026-04-11 08:28 3.12192 113.01723 89 ft 138 kts 345°
2026-04-11 08:29 3.13199 113.01472 492 ft 152 kts 344°
2026-04-11 08:29 3.14229 113.01209 1259 ft 150 kts 343°
2026-04-11 08:29 3.15216 113.00952 1942 ft 146 kts 343°
2026-04-11 08:29 3.16082 113.00333 2160 ft 169 kts 299°
2026-04-11 08:30 3.16292 112.99133 2340 ft 190 kts 256°
2026-04-11 08:30 3.15812 112.97816 2628 ft 213 kts 246°
2026-04-11 08:30 3.15189 112.96404 3109 ft 230 kts 246°
2026-04-11 08:30 3.14651 112.94842 3686 ft 245 kts 255°
2026-04-11 08:31 3.14378 112.93103 4288 ft 260 kts 263°
2026-04-11 08:31 3.14187 112.91259 4955 ft 271 kts 262°
2026-04-11 08:31 3.14032 112.90015 5498 ft 274 kts 261°
2026-04-11 08:31 3.13745 112.88118 6353 ft 276 kts 259°
2026-04-11 08:32 3.13435 112.86209 7185 ft 279 kts 259°
2026-04-11 08:32 3.13039 112.83646 8255 ft 283 kts 261°
2026-04-11 08:32 3.12844 112.82318 8784 ft 286 kts 261°
2026-04-11 08:32 3.12555 112.80343 9556 ft 288 kts 261°
2026-04-11 08:33 3.12262 112.78347 10305 ft 292 kts 261°
2026-04-11 08:33 3.11957 112.76299 10821 ft 305 kts 261°
2026-04-11 08:33 3.11632 112.74129 11149 ft 323 kts 261°
2026-04-11 08:33 3.11295 112.71879 11507 ft 339 kts 261°
2026-04-11 08:34 3.10939 112.69491 11873 ft 354 kts 261°
2026-04-11 08:34 3.10569 112.67010 12206 ft 368 kts 261°
2026-04-11 08:34 3.10183 112.64438 12693 ft 376 kts 261°
2026-04-11 08:34 3.09805 112.61924 13269 ft 380 kts 261°
2026-04-11 08:35 3.09398 112.59207 13860 ft 385 kts 261°
2026-04-11 08:35 3.09013 112.56538 14422 ft 389 kts 262°
2026-04-11 08:35 3.08644 112.53844 14958 ft 393 kts 262°
2026-04-11 08:35 3.08283 112.51153 15471 ft 397 kts 262°
2026-04-11 08:36 3.07914 112.48402 15968 ft 401 kts 262°
2026-04-11 08:36 3.07532 112.45620 16453 ft 405 kts 261°
2026-04-11 08:36 3.07138 112.42811 16930 ft 409 kts 261°
2026-04-11 08:36 3.06738 112.39981 17409 ft 413 kts 261°
2026-04-11 08:37 3.06336 112.37127 17857 ft 416 kts 261°
2026-04-11 08:37 3.05934 112.34241 18255 ft 420 kts 261°
2026-04-11 08:37 3.05531 112.31332 18661 ft 423 kts 261°
2026-04-11 08:37 3.05124 112.28405 19056 ft 426 kts 261°
2026-04-11 08:38 3.04713 112.25461 19431 ft 429 kts 261°
2026-04-11 08:38 3.04298 112.22492 19799 ft 432 kts 261°
2026-04-11 08:38 3.03882 112.19509 20165 ft 435 kts 261°
2026-04-11 08:38 3.03463 112.16504 20520 ft 437 kts 261°
2026-04-11 08:39 3.03049 112.13526 20864 ft 439 kts 261°
2026-04-11 08:39 3.02625 112.10490 21200 ft 442 kts 261°
2026-04-11 08:39 3.02199 112.07434 21523 ft 445 kts 261°
2026-04-11 08:39 3.01769 112.04365 21869 ft 446 kts 261°
2026-04-11 08:40 3.01340 112.01280 22156 ft 449 kts 261°
2026-04-11 08:40 3.00906 111.98172 22446 ft 452 kts 261°
2026-04-11 08:40 3.00469 111.95049 22734 ft 454 kts 261°
2026-04-11 08:40 3.00030 111.91910 23024 ft 457 kts 261°
2026-04-11 08:41 2.99588 111.88749 23306 ft 459 kts 261°
2026-04-11 08:41 2.99145 111.85579 23575 ft 461 kts 261°
2026-04-11 08:41 2.98700 111.82398 23843 ft 463 kts 261°
2026-04-11 08:41 2.98252 111.79198 24113 ft 465 kts 261°
2026-04-11 08:42 2.97802 111.75981 24368 ft 467 kts 261°
2026-04-11 08:42 2.97357 111.72799 24624 ft 469 kts 261°
2026-04-11 08:42 2.96903 111.69558 24886 ft 470 kts 261°
2026-04-11 08:43 2.95995 111.63057 25380 ft 474 kts 261°
2026-04-11 08:43 2.95535 111.59779 25622 ft 475 kts 261°
2026-04-11 08:43 2.95075 111.56499 25850 ft 477 kts 261°
2026-04-11 08:43 2.94611 111.53199 26082 ft 479 kts 261°
2026-04-11 08:44 2.94149 111.49900 26319 ft 480 kts 262°
2026-04-11 08:44 2.93685 111.46588 26550 ft 481 kts 262°
2026-04-11 08:44 2.93220 111.43267 26758 ft 483 kts 262°
2026-04-11 08:44 2.92754 111.39931 26949 ft 485 kts 262°
2026-04-11 08:45 2.92283 111.36576 27151 ft 487 kts 262°
2026-04-11 08:45 2.91811 111.33217 27339 ft 488 kts 262°
2026-04-11 08:45 2.91344 111.29896 27536 ft 489 kts 262°
2026-04-11 08:45 2.90869 111.26512 27726 ft 491 kts 262°
2026-04-11 08:46 2.90395 111.23128 27904 ft 492 kts 262°
2026-04-11 08:46 2.89919 111.19734 28084 ft 493 kts 262°
2026-04-11 08:46 2.89441 111.16326 28280 ft 494 kts 262°
2026-04-11 08:46 2.88964 111.12927 28537 ft 493 kts 262°
2026-04-11 08:47 2.88487 111.09531 28791 ft 493 kts 262°
2026-04-11 08:47 2.88010 111.06136 29042 ft 492 kts 262°
2026-04-11 08:47 2.87531 111.02742 29295 ft 492 kts 262°
2026-04-11 08:47 2.87054 110.99358 29547 ft 491 kts 262°
2026-04-11 08:48 2.86579 110.95981 29795 ft 490 kts 262°
2026-04-11 08:48 2.86105 110.92609 30049 ft 490 kts 262°
2026-04-11 08:48 2.85631 110.89237 30305 ft 489 kts 262°
2026-04-11 08:48 2.85160 110.85875 30574 ft 488 kts 262°
2026-04-11 08:49 2.84688 110.82514 30874 ft 487 kts 262°
2026-04-11 08:49 2.84215 110.79152 31100 ft 487 kts 262°
2026-04-11 08:49 2.83743 110.75799 31379 ft 486 kts 262°
2026-04-11 08:49 2.83272 110.72460 31664 ft 485 kts 262°
2026-04-11 08:50 2.82799 110.69126 31929 ft 484 kts 262°
2026-04-11 08:50 2.82328 110.65790 32227 ft 482 kts 262°
2026-04-11 08:50 2.81863 110.62474 32487 ft 481 kts 262°
2026-04-11 08:50 2.81404 110.59206 32738 ft 481 kts 262°
2026-04-11 08:51 2.80938 110.55898 33007 ft 479 kts 262°
2026-04-11 08:51 2.80472 110.52592 33276 ft 478 kts 262°
2026-04-11 08:51 2.80008 110.49304 33518 ft 478 kts 262°
2026-04-11 08:51 2.79544 110.46013 33784 ft 476 kts 262°
2026-04-11 08:52 2.78621 110.39458 34263 ft 475 kts 262°
2026-04-11 08:52 2.78160 110.36192 34478 ft 474 kts 262°
2026-04-11 08:52 2.77700 110.32936 34702 ft 473 kts 262°
2026-04-11 08:53 2.77238 110.29661 34871 ft 474 kts 262°
2026-04-11 08:53 2.76778 110.26406 35081 ft 473 kts 262°
2026-04-11 08:53 2.76322 110.23180 35275 ft 473 kts 262°
2026-04-11 08:53 2.75861 110.19929 35463 ft 473 kts 262°
2026-04-11 08:54 2.75401 110.16672 35659 ft 472 kts 262°
2026-04-11 08:54 2.74943 110.13426 35827 ft 472 kts 262°
2026-04-11 08:54 2.74025 110.06919 35850 ft 472 kts 262°
2026-04-11 08:55 2.73103 110.00416 35854 ft 472 kts 262°
2026-04-11 08:55 2.72182 109.93907 35855 ft 472 kts 262°
2026-04-11 08:56 2.71263 109.87411 35856 ft 472 kts 262°
2026-04-11 08:56 2.70342 109.80904 35864 ft 472 kts 262°
2026-04-11 08:57 2.69422 109.74409 35864 ft 472 kts 262°
2026-04-11 08:57 2.68499 109.67904 35879 ft 472 kts 262°
2026-04-11 08:58 2.67579 109.61409 35881 ft 472 kts 262°
2026-04-11 08:58 2.66656 109.54905 35888 ft 472 kts 262°
2026-04-11 08:59 2.65741 109.48453 35889 ft 472 kts 262°
2026-04-11 08:59 2.64817 109.41944 35888 ft 472 kts 262°
2026-04-11 09:00 2.63895 109.35448 35888 ft 472 kts 262°
2026-04-11 09:00 2.62972 109.28947 35888 ft 472 kts 262°
2026-04-11 09:01 2.62047 109.22445 35870 ft 472 kts 262°
2026-04-11 09:01 2.61123 109.15952 35830 ft 472 kts 262°
2026-04-11 09:02 2.60199 109.09442 35801 ft 473 kts 262°
2026-04-11 09:02 2.59272 109.02939 35833 ft 472 kts 262°
2026-04-11 09:03 2.58346 108.96436 35814 ft 472 kts 262°
2026-04-11 09:03 2.57877 108.89939 35812 ft 471 kts 271°
2026-04-11 09:04 2.58171 108.83389 35809 ft 472 kts 274°
2026-04-11 09:04 2.58521 108.76833 35817 ft 472 kts 272°
2026-04-11 09:05 2.58774 108.70266 35806 ft 473 kts 272°
2026-04-11 09:05 2.59036 108.63697 35838 ft 472 kts 272°
2026-04-11 09:06 2.59330 108.57125 35860 ft 472 kts 272°
2026-04-11 09:06 2.59609 108.50562 35878 ft 472 kts 272°
2026-04-11 09:07 2.59883 108.44000 35887 ft 472 kts 272°
2026-04-11 09:07 2.60163 108.37436 35886 ft 472 kts 272°
2026-04-11 09:08 2.60440 108.30931 35878 ft 471 kts 272°
2026-04-11 09:08 2.60714 108.24377 35837 ft 471 kts 272°
2026-04-11 09:09 2.60990 108.17838 35796 ft 471 kts 272°
2026-04-11 09:09 2.61268 108.11294 35801 ft 471 kts 272°
2026-04-11 09:10 2.61543 108.04747 35798 ft 472 kts 272°
2026-04-11 09:10 2.61818 107.98213 35804 ft 472 kts 272°
2026-04-11 09:11 2.62094 107.91649 35845 ft 472 kts 272°
2026-04-11 09:11 2.62368 107.85085 35875 ft 472 kts 272°
2026-04-11 09:12 2.62642 107.78516 35889 ft 472 kts 272°
2026-04-11 09:12 2.62918 107.71943 35890 ft 473 kts 272°
2026-04-11 09:13 2.63193 107.65374 35888 ft 472 kts 272°
2026-04-11 09:13 2.63465 107.58811 35880 ft 472 kts 272°
2026-04-11 09:14 2.63739 107.52247 35863 ft 472 kts 272°
2026-04-11 09:14 2.64013 107.45728 35850 ft 472 kts 272°
2026-04-11 09:15 2.64284 107.39160 35842 ft 472 kts 272°
2026-04-11 09:15 2.64554 107.32583 35839 ft 472 kts 272°
2026-04-11 09:16 2.64829 107.26019 35841 ft 472 kts 272°
2026-04-11 09:16 2.65102 107.19450 35837 ft 472 kts 272°
2026-04-11 09:17 2.65370 107.12922 35842 ft 472 kts 272°
2026-04-11 09:17 2.65642 107.06364 35866 ft 472 kts 272°
2026-04-11 09:18 2.65911 106.99804 35866 ft 472 kts 272°
2026-04-11 09:18 2.66136 106.94347 35869 ft 472 kts 272°
2026-04-11 09:19 2.66407 106.87777 35870 ft 472 kts 272°
2026-04-11 09:19 2.66675 106.81224 35869 ft 472 kts 272°
2026-04-11 09:20 2.66946 106.74657 35867 ft 472 kts 272°
2026-04-11 09:20 2.67216 106.68096 35862 ft 472 kts 272°
2026-04-11 09:21 2.67481 106.61539 35860 ft 472 kts 272°
2026-04-11 09:21 2.67751 106.54979 35857 ft 472 kts 272°
2026-04-11 09:22 2.68020 106.48452 35818 ft 473 kts 272°
2026-04-11 09:22 2.68283 106.41872 35792 ft 473 kts 272°
2026-04-11 09:23 2.68553 106.35292 35787 ft 473 kts 272°
2026-04-11 09:23 2.68823 106.28719 35790 ft 473 kts 272°
2026-04-11 09:24 2.69086 106.22142 35794 ft 473 kts 272°
2026-04-11 09:24 2.69354 106.15568 35805 ft 473 kts 272°
2026-04-11 09:25 2.69621 106.08989 35818 ft 473 kts 272°
2026-04-11 09:25 2.69883 106.02418 35833 ft 473 kts 272°
2026-04-11 09:26 2.70420 105.95873 35853 ft 472 kts 276°
2026-04-11 09:26 2.71186 105.89350 35825 ft 472 kts 277°
2026-04-11 09:27 2.71947 105.82829 35782 ft 472 kts 276°
2026-04-11 09:27 2.72672 105.76293 35764 ft 472 kts 276°
2026-04-11 09:28 2.73326 105.69806 35767 ft 472 kts 275°
2026-04-11 09:28 2.73907 105.63267 35766 ft 472 kts 275°
2026-04-11 09:29 2.74482 105.56704 35786 ft 472 kts 275°
2026-04-11 09:29 2.75062 105.50163 35797 ft 472 kts 275°
2026-04-11 09:30 2.75643 105.43617 35810 ft 472 kts 275°
2026-04-11 09:30 2.76221 105.37066 35793 ft 473 kts 275°
2026-04-11 09:31 2.76797 105.30557 35794 ft 473 kts 275°
2026-04-11 09:31 2.77374 105.24003 35797 ft 473 kts 275°
2026-04-11 09:32 2.77963 105.17443 35802 ft 473 kts 276°
2026-04-11 09:32 2.78799 105.10914 35816 ft 473 kts 277°
2026-04-11 09:33 2.79698 105.04395 35831 ft 473 kts 277°
2026-04-11 09:33 2.80570 104.97879 35845 ft 473 kts 277°
2026-04-11 09:34 2.81431 104.91347 35845 ft 473 kts 277°
2026-04-11 09:34 2.82298 104.84865 35806 ft 473 kts 277°
2026-04-11 09:35 2.83175 104.78338 35784 ft 473 kts 277°
2026-04-11 09:35 2.84044 104.71799 35771 ft 473 kts 277°
2026-04-11 09:36 2.84911 104.65268 35769 ft 473 kts 277°
2026-04-11 09:36 2.85778 104.58739 35768 ft 473 kts 277°
2026-04-11 09:37 2.86646 104.52214 35774 ft 473 kts 277°
2026-04-11 09:37 2.87468 104.45685 35783 ft 473 kts 275°
2026-04-11 09:38 2.88092 104.39174 35791 ft 473 kts 275°
2026-04-11 09:38 2.88706 104.32629 35798 ft 473 kts 275°
2026-04-11 09:39 2.89337 104.26076 35814 ft 473 kts 275°
2026-04-11 09:39 2.89961 104.19526 35829 ft 473 kts 275°
2026-04-11 09:40 2.90585 104.12957 35796 ft 474 kts 275°
2026-04-11 09:40 2.90680 104.06422 35779 ft 473 kts 266°
2026-04-11 09:41 2.90214 103.99863 35773 ft 473 kts 264°
2026-04-11 09:41 2.89731 103.93255 35777 ft 473 kts 265°
2026-04-11 09:42 2.89333 103.86724 35786 ft 473 kts 265°
2026-04-11 09:43 2.88689 103.76861 35794 ft 473 kts 265°
2026-04-11 09:43 2.88251 103.70289 35801 ft 473 kts 265°
2026-04-11 09:44 2.87827 103.63769 35807 ft 473 kts 265°
2026-04-11 09:44 2.87313 103.57204 35816 ft 473 kts 264°
2026-04-11 09:45 2.86749 103.50648 35829 ft 473 kts 264°
2026-04-11 09:45 2.86232 103.44085 35838 ft 473 kts 264°
2026-04-11 09:46 2.85718 103.37535 35854 ft 472 kts 264°
2026-04-11 09:46 2.85434 103.34001 35852 ft 472 kts 264°
2026-04-11 09:49 2.84922 103.27707 35850 ft 472 kts 264°
2026-04-11 09:49 2.84401 103.21200 35843 ft 472 kts 264°
2026-04-11 09:50 2.83883 103.14649 35815 ft 472 kts 264°
2026-04-11 09:50 2.83457 103.09354 35790 ft 472 kts 264°
2026-04-11 09:51 2.82924 103.02800 35766 ft 471 kts 264°
2026-04-11 09:51 2.82401 102.96294 35417 ft 466 kts 264°
2026-04-11 09:51 2.82141 102.93066 34724 ft 464 kts 264°
2026-04-11 09:52 2.81880 102.89829 33699 ft 470 kts 264°
2026-04-11 09:52 2.81612 102.86538 32581 ft 479 kts 264°
2026-04-11 09:52 2.81348 102.83259 31815 ft 479 kts 264°
2026-04-11 09:52 2.81079 102.79901 31140 ft 479 kts 264°
2026-04-11 09:53 2.80809 102.76574 30358 ft 479 kts 265°
2026-04-11 09:53 2.80453 102.73265 29558 ft 479 kts 259°
2026-04-11 09:53 2.79594 102.70097 28737 ft 478 kts 248°
2026-04-11 09:53 2.78045 102.67122 27886 ft 476 kts 234°
2026-04-11 09:54 2.75918 102.64650 26994 ft 475 kts 221°
2026-04-11 09:54 2.73279 102.62677 26110 ft 474 kts 211°
2026-04-11 09:54 2.70479 102.60947 25300 ft 471 kts 210°
2026-04-11 09:54 2.67685 102.59249 24483 ft 469 kts 210°
2026-04-11 09:55 2.64918 102.57523 23667 ft 467 kts 211°
2026-04-11 09:55 2.62198 102.55765 22868 ft 465 kts 212°
2026-04-11 09:55 2.59503 102.53992 22087 ft 463 kts 212°
2026-04-11 09:55 2.56817 102.52230 21309 ft 460 kts 212°
2026-04-11 09:56 2.54130 102.50489 20555 ft 458 kts 212°
2026-04-11 09:56 2.51452 102.48782 19861 ft 454 kts 212°
2026-04-11 09:56 2.48829 102.47110 19436 ft 441 kts 212°
2026-04-11 09:56 2.46284 102.45477 19188 ft 426 kts 212°
2026-04-11 09:57 2.43838 102.43896 18975 ft 411 kts 212°
2026-04-11 09:57 2.41479 102.42369 18777 ft 397 kts 213°
2026-04-11 09:57 2.39397 102.40633 18544 ft 385 kts 230°
2026-04-11 09:57 2.38107 102.38388 18369 ft 371 kts 250°
2026-04-11 09:58 2.37365 102.35968 18236 ft 358 kts 255°
2026-04-11 09:58 2.36483 102.33685 18030 ft 346 kts 237°
2026-04-11 09:58 2.34863 102.31999 17806 ft 332 kts 211°
2026-04-11 09:58 2.32774 102.31204 17559 ft 318 kts 186°
2026-04-11 09:59 2.30587 102.31065 17141 ft 314 kts 180°
2026-04-11 09:59 2.28388 102.30967 16604 ft 316 kts 184°
2026-04-11 09:59 2.26264 102.30487 16255 ft 314 kts 204°
2026-04-11 09:59 2.24355 102.29452 15964 ft 310 kts 212°
2026-04-11 10:00 2.22560 102.28278 15663 ft 307 kts 214°
2026-04-11 10:00 2.20801 102.27094 15387 ft 303 kts 214°
2026-04-11 10:00 2.19046 102.25928 15124 ft 302 kts 217°
2026-04-11 10:00 2.17518 102.24495 14839 ft 301 kts 230°
2026-04-11 10:01 2.16191 102.22870 14516 ft 302 kts 233°
2026-04-11 10:01 2.14927 102.21199 14197 ft 300 kts 234°
2026-04-11 10:01 2.13684 102.19539 13868 ft 298 kts 234°
2026-04-11 10:01 2.12481 102.17866 13538 ft 294 kts 242°
2026-04-11 10:02 2.11678 102.16035 13242 ft 289 kts 252°
2026-04-11 10:02 2.11057 102.14132 12941 ft 286 kts 255°
2026-04-11 10:02 2.10494 102.12242 12648 ft 282 kts 255°
2026-04-11 10:02 2.09923 102.10374 12329 ft 280 kts 254°
2026-04-11 10:03 2.09394 102.08510 11977 ft 277 kts 262°
2026-04-11 10:03 2.09279 102.06600 11641 ft 273 kts 272°
2026-04-11 10:03 2.09355 102.04713 11305 ft 271 kts 275°
2026-04-11 10:03 2.09496 102.02844 10969 ft 268 kts 279°
2026-04-11 10:04 2.10072 102.01109 10657 ft 264 kts 302°
2026-04-11 10:04 2.11374 101.99833 10403 ft 265 kts 330°
2026-04-11 10:04 2.13146 101.99354 10157 ft 268 kts 358°
2026-04-11 10:04 2.14993 101.99648 9935 ft 270 kts 12°
2026-04-11 10:05 2.16808 102.00143 9619 ft 270 kts 13°
2026-04-11 10:05 2.18633 102.00612 9271 ft 271 kts 11°
2026-04-11 10:05 2.20454 102.01000 8923 ft 271 kts
2026-04-11 10:05 2.22304 102.01353 8571 ft 269 kts
2026-04-11 10:06 2.24126 102.01712 8242 ft 265 kts
2026-04-11 10:06 2.25918 102.02089 7913 ft 262 kts
2026-04-11 10:06 2.27098 102.02343 7704 ft 262 kts
2026-04-11 10:06 2.29476 102.02844 7253 ft 261 kts
2026-04-11 10:07 2.30656 102.03086 7023 ft 261 kts
2026-04-11 10:07 2.32438 102.03452 6676 ft 261 kts
2026-04-11 10:07 2.34216 102.03823 6323 ft 259 kts
2026-04-11 10:07 2.35967 102.04176 6028 ft 253 kts
2026-04-11 10:08 2.37636 102.04020 5958 ft 235 kts 335°
2026-04-11 10:08 2.38871 102.03061 5838 ft 222 kts 306°
2026-04-11 10:08 2.39691 102.01772 5662 ft 217 kts 301°
2026-04-11 10:08 2.40507 102.00522 5481 ft 212 kts 305°
2026-04-11 10:09 2.41408 101.99346 5314 ft 212 kts 308°
2026-04-11 10:09 2.42320 101.98212 5150 ft 212 kts 308°
2026-04-11 10:09 2.43226 101.97050 4976 ft 211 kts 307°
2026-04-11 10:09 2.44125 101.95865 4809 ft 210 kts 307°
2026-04-11 10:10 2.44992 101.94732 4558 ft 207 kts 307°
2026-04-11 10:10 2.45867 101.93598 4307 ft 203 kts 307°
2026-04-11 10:10 2.46705 101.92509 4164 ft 193 kts 307°
2026-04-11 10:10 2.47517 101.91453 3898 ft 191 kts 307°
2026-04-11 10:11 2.48321 101.90404 3603 ft 189 kts 307°
2026-04-11 10:11 2.49119 101.89363 3290 ft 189 kts 307°
2026-04-11 10:11 2.49921 101.88320 2974 ft 189 kts 307°
2026-04-11 10:11 2.50725 101.87276 2667 ft 189 kts 307°
2026-04-11 10:12 2.51527 101.86233 2506 ft 189 kts 307°
2026-04-11 10:12 2.52294 101.85236 2509 ft 173 kts 307°
2026-04-11 10:12 2.52980 101.84345 2494 ft 156 kts 307°
2026-04-11 10:12 2.53630 101.83500 2494 ft 145 kts 307°
2026-04-11 10:13 2.54245 101.82700 2516 ft 145 kts 307°
2026-04-11 10:13 2.54850 101.81911 2506 ft 145 kts 307°
2026-04-11 10:13 2.55463 101.81112 2499 ft 145 kts 307°
2026-04-11 10:13 2.56075 101.80313 2493 ft 145 kts 307°
2026-04-11 10:14 2.56692 101.79512 2492 ft 145 kts 307°
2026-04-11 10:14 2.57358 101.78758 2489 ft 145 kts 318°
2026-04-11 10:14 2.58189 101.78183 2493 ft 146 kts 327°
2026-04-11 10:14 2.59047 101.77646 2499 ft 152 kts 327°
2026-04-11 10:15 2.59988 101.77046 2543 ft 165 kts 326°
2026-04-11 10:15 2.60901 101.76448 2459 ft 149 kts 325°
2026-04-11 10:15 2.61751 101.75871 2094 ft 149 kts 324°
2026-04-11 10:15 2.62577 101.75288 1842 ft 141 kts 323°
2026-04-11 10:16 2.63346 101.74720 1565 ft 135 kts 322°
2026-04-11 10:16 2.64106 101.74185 1260 ft 135 kts 323°
2026-04-11 10:16 2.64914 101.73643 1026 ft 142 kts 325°
2026-04-11 10:16 2.65729 101.73105 922 ft 139 kts 326°
2026-04-11 10:17 2.66545 101.72623 826 ft 139 kts 327°
2026-04-11 10:17 2.67382 101.72090 730 ft 142 kts 324°
2026-04-11 10:17 2.68187 101.71532 640 ft 144 kts 326°
2026-04-11 10:17 2.69021 101.70960 491 ft 146 kts 327°
2026-04-11 10:18 2.69871 101.70400 329 ft 146 kts 327°
2026-04-11 10:18 2.70721 101.69839 168 ft 146 kts 327°
2026-04-11 10:18 2.71542 101.69280 87 ft 135 kts 325°
2026-04-11 10:18 2.72224 101.68826 84 ft 94 kts 326°
2026-04-11 10:19 2.72624 101.68563 84 ft 44 kts 326°
2026-04-11 10:19 2.72740 101.68487 84 ft 5 kts 327°
2026-04-11 10:19 2.72813 101.68449 84 ft 21 kts 340°
2026-04-11 10:19 2.72977 101.68403 84 ft 26 kts 351°
2026-04-11 10:20 2.73128 101.68387 84 ft 7 kts 351°
2026-04-11 10:20 2.73131 101.68387 84 ft 0 kts 351°
2026-04-11 10:21 2.73132 101.68387 84 ft 0 kts 351°
2026-04-11 10:22 2.73148 101.68384 84 ft 4 kts 351°
2026-04-11 10:22 2.73181 101.68378 84 ft 7 kts 347°
2026-04-11 10:22 2.73249 101.68347 84 ft 12 kts 323°
2026-04-11 10:22 2.73318 101.68297 84 ft 13 kts 324°
2026-04-11 10:23 2.73393 101.68248 84 ft 13 kts 328°
2026-04-11 10:23 2.73474 101.68197 84 ft 14 kts 327°
2026-04-11 10:23 2.73558 101.68141 84 ft 15 kts 326°
2026-04-11 10:23 2.73646 101.68082 84 ft 16 kts 326°
2026-04-11 10:24 2.73739 101.68020 84 ft 17 kts 327°
2026-04-11 10:24 2.73837 101.67954 84 ft 17 kts 326°
2026-04-11 10:24 2.73930 101.67932 84 ft 13 kts 50°
2026-04-11 10:24 2.73976 101.68011 84 ft 13 kts 59°
2026-04-11 10:25 2.74031 101.68089 84 ft 14 kts 53°
2026-04-11 10:25 2.74091 101.68168 84 ft 13 kts 53°
2026-04-11 10:25 2.74117 101.68202 84 ft 0 kts 52°
2026-04-11 10:25 2.74118 101.68210 84 ft 5 kts 86°
2026-04-11 10:26 2.74106 101.68224 84 ft 2 kts 187°
2026-04-11 10:26 2.74103 101.68222 84 ft 0 kts 206°
2026-04-11 10:26 2.74100 101.68221 84 ft 1 kts 188°
2026-04-11 10:26 2.74096 101.68250 84 ft 5 kts 53°
2026-04-11 10:27 2.74118 101.68285 84 ft 7 kts 55°
2026-04-11 10:27 2.74149 101.68328 84 ft 8 kts 54°
2026-04-11 10:27 2.74180 101.68374 84 ft 8 kts 57°
2026-04-11 10:27 2.74187 101.68417 84 ft 6 kts 131°
2026-04-11 10:28 2.74157 101.68438 84 ft 4 kts 145°
2026-04-11 10:28 2.74154 101.68440 84 ft 1 kts 145°